This is the latest recevied weather packets stored in our database for station/object R1ZCU-14. If no packets are shown the sender has not sent any weather packets the latest 10 day(s).
| Time | Temp. | Humidity | Pressure | Rain* | Wind** | Luminosity | Snow |
|---|---|---|---|---|---|---|---|
| 1787997309 | 21.11° C | 51% | 1013.6 hPa | - | - | - | - |
| 1787996709 | 22.78° C | 46% | 1013.7 hPa | - | - | - | - |
| 1787996108 | 28.89° C | 31% | 1013.3 hPa | - | - | - | - |
| 1787995508 | 32.22° C | 24% | 1013.2 hPa | - | - | - | - |
| 1787994907 | 32.22° C | 24% | 1013.2 hPa | - | - | - | - |
| 1787994307 | 31.67° C | 26% | 1013.1 hPa | - | - | - | - |
| 1787993706 | 32.22° C | 25% | 1013.3 hPa | - | - | - | - |
| 1787993106 | 30.56° C | 27% | 1013.5 hPa | - | - | - | - |
| 1787992505 | 29.44° C | 28% | 1013.6 hPa | - | - | - | - |
| 1787991905 | 28.33° C | 28% | 1013.6 hPa | - | - | - | - |
| 1787991304 | 27.78° C | 28% | 1013.6 hPa | - | - | - | - |
| 1787990704 | 26.11° C | 30% | 1013.7 hPa | - | - | - | - |
| 1787990103 | 25° C | 35% | 1013.7 hPa | - | - | - | - |
| 1787989503 | 22.22° C | 47% | 1013.9 hPa | - | - | - | - |
| 1787988902 | 20.56° C | 53% | 1013.9 hPa | - | - | - | - |
| 1787988302 | 19.44° C | 58% | 1014.1 hPa | - | - | - | - |
| 1787987701 | 18.33° C | 59% | 1014.1 hPa | - | - | - | - |
| 1787987101 | 17.78° C | 63% | 1014.2 hPa | - | - | - | - |
| 1787986500 | 17.22° C | 64% | 1014.3 hPa | - | - | - | - |
| 1787985900 | 17.22° C | 66% | 1014.2 hPa | - | - | - | - |
| 1787985299 | 16.67° C | 69% | 1014.3 hPa | - | - | - | - |
| 1787984699 | 16.67° C | 72% | 1014.3 hPa | - | - | - | - |
| 1787984098 | 15.56° C | 76% | 1014.3 hPa | - | - | - | - |
| 1787983498 | 15° C | 82% | 1014.2 hPa | - | - | - | - |
| 1787982897 | 13.89° C | 89% | 1014.1 hPa | - | - | - | - |
* Rain since midnight (hover to see other rain measurements)
** Current wind speed in m/s (hover to see current wind gust speed)